Location: Jalan Sepang
(2.8072°N, 101.8021°E)
Time: 05:30:02
(UTC+00:00)

Centaur D AC-25 - Pass Details

Date: 15 May 2026
Orbit: 613 x 36460 km, 27.6° (Epoch: 7 June)

Event Time Altitude Azimuth Distance (km) Brightness Sun altitude
Exits shadow 21:46:58 14° 307° (NW) 1,878 4.2 -18.4°
Maximum altitude 21:48:10 16° 329° (NNW) 1,672 4.2 -18.1°
Drops below altitude 10° 21:50:29 10° 11° (NNE) 1,957 5.0 -17.6°
Sets 21:53:35 0° 39° (NE) 3,190 6.8 -16.8°
